| time (UTC) | temp F | wind direction | speed knots | gust knots | rain 1hr in | rain 24hr in | rain mn in | humidity % | barometer mb |
| 20260508130737 | 48 | 85 | 1.7 | 3.5 | 0.00 | 0.00 | 0.00 | 82 | 1018.0 |
| 20260508130235 | 47 | 63 | 1.7 | 2.6 | 0.00 | 0.00 | 0.00 | 84 | 1017.8 |
| 20260508125730 | 46 | 66 | 0.9 | 1.7 | 0.00 | 0.00 | 0.00 | 87 | 1017.8 |
| 20260508125227 | 46 | 195 | 0.0 | 1.7 | 0.00 | 0.00 | 0.00 | 87 | 1017.8 |
| 20260508124725 | 45 | 255 | 0.0 | 1.7 | 0.00 | 0.00 | 0.00 | 88 | 1017.8 |
| 20260508124222 | 45 | 12 | 0.0 | 2.6 | 0.00 | 0.00 | 0.00 | 88 | 1018.0 |
| 20260508123720 | 45 | 40 | 0.9 | 2.6 | 0.00 | 0.00 | 0.00 | 89 | 1018.0 |
| 20260508123218 | 44 | 41 | 1.7 | 1.7 | 0.00 | 0.00 | 0.00 | 89 | 1017.8 |
| 20260508122713 | 44 | 286 | 0.0 | 0.9 | 0.00 | 0.00 | 0.00 | 90 | 1017.5 |
| 20260508122210 | 43 | 90 | 0.0 | 0.9 | 0.00 | 0.00 | 0.00 | 89 | 1017.4 |
| 20260508121708 | 43 | 180 | 0.0 | 0.9 | 0.00 | 0.00 | 0.00 | 90 | 1017.3 |
| 20260508121207 | 43 | 114 | 0.0 | 0.0 | 0.00 | 0.00 | 0.00 | 91 | 1017.0 |
| 20260508120704 | 42 | 97 | 0.0 | 0.9 | 0.00 | 0.00 | 0.00 | 90 | 1016.8 |
| 20260508120202 | 43 | 103 | 0.0 | 1.7 | 0.00 | 0.00 | 0.00 | 90 | 1016.7 |
| 20260508115659 | 43 | 109 | 0.9 | 1.7 | 0.00 | 0.00 | 0.00 | 90 | 1016.4 |
| 20260508115156 | 43 | 119 | 1.7 | 2.6 | 0.00 | 0.00 | 0.00 | 91 | 1016.4 |
| 20260508114653 | 42 | 97 | 0.9 | 1.7 | 0.00 | 0.00 | 0.00 | 91 | 1016.4 |
| 20260508114149 | 42 | 54 | 0.9 | 1.7 | 0.00 | 0.00 | 0.00 | 90 | 1016.4 |
| 20260508113646 | 42 | 114 | 0.9 | 1.7 | 0.00 | 0.00 | 0.00 | 90 | 1016.3 |
| 20260508113144 | 43 | 114 | 0.0 | 1.7 | 0.00 | 0.00 | 0.00 | 90 | 1016.4 |
| 20260508112640 | 43 | 117 | 1.7 | 2.6 | 0.00 | 0.00 | 0.00 | 90 | 1016.1 |
| 20260508112137 | 43 | 54 | 0.9 | 1.7 | 0.00 | 0.00 | 0.00 | 90 | 1016.2 |
| 20260508111634 | 43 | 7 | 0.9 | 1.7 | 0.00 | 0.00 | 0.00 | 89 | 1016.5 |
| 20260508111131 | 43 | 42 | 2.6 | 4.3 | 0.00 | 0.00 | 0.00 | 90 | 1016.4 |
| 20260508110629 | 43 | 71 | 1.7 | 2.6 | 0.00 | 0.00 | 0.00 | 90 | 1015.8 |
| 20260508110125 | 43 | 123 | 2.6 | 2.6 | 0.00 | 0.00 | 0.00 | 90 | 1016.2 |
| 20260508105620 | 43 | 47 | 2.6 | 3.5 | 0.00 | 0.00 | 0.00 | 90 | 1016.1 |
| 20260508105117 | 43 | 33 | 2.6 | 3.5 | 0.00 | 0.00 | 0.00 | 91 | 1016.1 |
| 20260508104615 | 43 | 77 | 0.9 | 1.7 | 0.00 | 0.00 | 0.00 | 90 | 1016.1 |
| 20260508104111 | 43 | 50 | 1.7 | 2.6 | 0.00 | 0.00 | 0.00 | 90 | 1016.1 |
| 20260508103608 | 43 | 35 | 0.0 | 0.9 | 0.00 | 0.00 | 0.00 | 90 | 1015.8 |
| 20260508103106 | 43 | 66 | 0.0 | 1.7 | 0.00 | 0.00 | 0.00 | 90 | 1016.0 |
| 20260508102603 | 43 | 42 | 2.6 | 3.5 | 0.00 | 0.00 | 0.00 | 89 | 1016.1 |
| 20260508102101 | 44 | 48 | 1.7 | 5.2 | 0.00 | 0.00 | 0.00 | 87 | 1015.6 |
| 20260508101558 | 45 | 28 | 1.7 | 1.7 | 0.00 | 0.00 | 0.00 | 86 | 1015.5 |
| 20260508101055 | 45 | 145 | 0.0 | 0.9 | 0.00 | 0.00 | 0.00 | 86 | 1015.3 |
| 20260508100553 | 45 | 221 | 1.7 | 2.6 | 0.00 | 0.00 | 0.00 | 86 | 1015.5 |
| 20260508100049 | 45 | 203 | 0.9 | 1.7 | 0.00 | 0.00 | 0.00 | 86 | 1015.3 |
| 20260508095547 | 45 | 140 | 0.9 | 1.7 | 0.00 | 0.00 | 0.00 | 86 | 1015.3 |
| 20260508095043 | 45 | 114 | 0.9 | 1.7 | 0.00 | 0.00 | 0.00 | 86 | 1015.0 |
| 20260508094541 | 46 | 144 | 1.7 | 2.6 | 0.00 | 0.00 | 0.00 | 85 | 1015.0 |
| 20260508094037 | 46 | 120 | 1.7 | 2.6 | 0.00 | 0.00 | 0.00 | 85 | 1015.1 |
| 20260508093534 | 46 | 114 | 0.9 | 0.9 | 0.00 | 0.00 | 0.00 | 85 | 1015.4 |
| 20260508093032 | 46 | 110 | 1.7 | 3.5 | 0.00 | 0.00 | 0.00 | 85 | 1014.9 |
| 20260508092529 | 46 | 66 | 0.9 | 2.6 | 0.00 | 0.00 | 0.00 | 85 | 1015.5 |
| 20260508092028 | 46 | 103 | 0.9 | 2.6 | 0.00 | 0.00 | 0.00 | 84 | 1015.6 |
| 20260508091525 | 46 | 63 | 1.7 | 2.6 | 0.00 | 0.00 | 0.00 | 84 | 1015.6 |
| 20260508091022 | 47 | 48 | 1.7 | 4.3 | 0.00 | 0.00 | 0.00 | 84 | 1015.5 |
| 20260508090520 | 46 | 78 | 1.7 | 2.6 | 0.00 | 0.00 | 0.00 | 84 | 1015.6 |
| 20260508090016 | 47 | 53 | 1.7 | 4.3 | 0.00 | 0.00 | 0.00 | 83 | 1015.5 |
| 20260508085513 | 47 | 29 | 2.6 | 4.3 | 0.00 | 0.00 | 0.00 | 83 | 1015.5 |
| 20260508085010 | 47 | 40 | 2.6 | 4.3 | 0.00 | 0.00 | 0.00 | 83 | 1015.7 |
| 20260508084507 | 46 | 37 | 4.3 | 5.2 | 0.00 | 0.00 | 0.00 | 84 | 1015.7 |
| 20260508084004 | 46 | 45 | 0.0 | 2.6 | 0.00 | 0.00 | 0.00 | 85 | 1015.7 |
| 20260508083501 | 46 | 69 | 2.6 | 2.6 | 0.00 | 0.00 | 0.00 | 84 | 1015.5 |
| 20260508082956 | 47 | 49 | 2.6 | 3.5 | 0.00 | 0.00 | 0.00 | 82 | 1015.8 |
| 20260508082453 | 47 | 69 | 2.6 | 3.5 | 0.00 | 0.00 | 0.00 | 81 | 1015.8 |
| 20260508081951 | 48 | 101 | 2.6 | 3.5 | 0.00 | 0.00 | 0.00 | 80 | 1016.0 |
| 20260508081448 | 48 | 69 | 0.9 | 3.5 | 0.00 | 0.00 | 0.00 | 79 | 1015.8 |
| 20260508080944 | 48 | 63 | 1.7 | 2.6 | 0.00 | 0.00 | 0.00 | 78 | 1015.8 |
| 20260508080442 | 48 | 176 | 1.7 | 2.6 | 0.00 | 0.00 | 0.00 | 78 | 1015.8 |
| 20260508075939 | 48 | 164 | 1.7 | 1.7 | 0.00 | 0.00 | 0.00 | 78 | 1016.2 |
| 20260508075436 | 48 | 144 | 1.7 | 1.7 | 0.00 | 0.00 | 0.00 | 79 | 1016.0 |
| 20260508074933 | 48 | 28 | 1.7 | 1.7 | 0.00 | 0.00 | 0.00 | 80 | 1016.1 |
| 20260508074431 | 48 | 90 | 0.9 | 0.9 | 0.00 | 0.00 | 0.00 | 79 | 1016.2 |
| 20260508073927 | 48 | 114 | 0.0 | 2.6 | 0.00 | 0.00 | 0.00 | 79 | 1016.0 |
| 20260508073425 | 48 | 279 | 0.0 | 0.0 | 0.00 | 0.00 | 0.00 | 79 | 1016.1 |
| 20260508072922 | 48 | 20 | 0.0 | 2.6 | 0.00 | 0.00 | 0.00 | 79 | 1016.2 |
| 20260508072418 | 49 | 29 | 1.7 | 1.7 | 0.00 | 0.00 | 0.00 | 78 | 1016.1 |
| 20260508071916 | 49 | 65 | 1.7 | 2.6 | 0.00 | 0.00 | 0.00 | 77 | 1016.1 |
| 20260508071413 | 49 | 253 | 1.7 | 1.7 | 0.00 | 0.00 | 0.00 | 78 | 1015.7 |
| 20260508070911 | 49 | 95 | 1.7 | 1.7 | 0.00 | 0.00 | 0.00 | 77 | 1015.8 |
| 20260508070408 | 49 | 45 | 1.7 | 1.7 | 0.00 | 0.00 | 0.00 | 75 | 1015.7 |
| 20260508065906 | 50 | 130 | 2.6 | 2.6 | 0.00 | 0.00 | 0.00 | 74 | 1015.7 |
| 20260508065404 | 50 | 151 | 1.7 | 2.6 | 0.00 | 0.00 | 0.00 | 74 | 1015.6 |
| 20260508064902 | 50 | 175 | 0.0 | 1.7 | 0.00 | 0.00 | 0.00 | 73 | 1015.8 |
| 20260508064359 | 51 | 105 | 0.9 | 4.3 | 0.00 | 0.00 | 0.00 | 72 | 1015.7 |
| 20260508063857 | 51 | 120 | 2.6 | 4.3 | 0.00 | 0.00 | 0.00 | 71 | 1015.7 |
| 20260508063354 | 51 | 116 | 2.6 | 5.2 | 0.00 | 0.00 | 0.00 | 71 | 1015.4 |
| 20260508062851 | 51 | 111 | 4.3 | 4.3 | 0.00 | 0.00 | 0.00 | 71 | 1015.1 |
| 20260508062349 | 51 | 134 | 4.3 | 6.1 | 0.00 | 0.00 | 0.00 | 71 | 1015.5 |
| 20260508061846 | 51 | 57 | 4.3 | 7.8 | 0.00 | 0.00 | 0.00 | 70 | 1016.1 |
| 20260508061343 | 53 | 26 | 6.1 | 7.0 | 0.00 | 0.00 | 0.00 | 65 | 1016.5 |
| 20260508060839 | 53 | 355 | 0.0 | 9.6 | 0.00 | 0.00 | 0.00 | 63 | 1017.3 |
| 20260508060337 | 53 | 2 | 2.6 | 7.0 | 0.00 | 0.00 | 0.00 | 64 | 1017.0 |
| 20260508055832 | 52 | 330 | 2.6 | 4.3 | 0.00 | 0.03 | 0.03 | 65 | 1016.2 |
| 20260508055330 | 53 | 59 | 1.7 | 5.2 | 0.00 | 0.03 | 0.03 | 63 | 1015.4 |
| 20260508054826 | 53 | 33 | 1.7 | 6.1 | 0.00 | 0.03 | 0.03 | 62 | 1015.4 |
| 20260508054324 | 53 | 83 | 2.6 | 3.5 | 0.00 | 0.03 | 0.03 | 62 | 1015.5 |
| 20260508053820 | 53 | 131 | 2.6 | 4.3 | 0.00 | 0.03 | 0.03 | 62 | 1015.1 |
| 20260508053318 | 53 | 72 | 1.7 | 7.0 | 0.00 | 0.03 | 0.03 | 63 | 1015.0 |
| 20260508052815 | 53 | 67 | 2.6 | 3.5 | 0.00 | 0.03 | 0.03 | 63 | 1015.3 |
| 20260508052312 | 53 | 97 | 2.6 | 5.2 | 0.00 | 0.03 | 0.03 | 63 | 1015.6 |
| 20260508051808 | 53 | 67 | 2.6 | 3.5 | 0.00 | 0.03 | 0.03 | 64 | 1015.0 |
| 20260508051304 | 53 | 87 | 3.5 | 8.7 | 0.00 | 0.03 | 0.03 | 63 | 1015.1 |
| 20260508050801 | 53 | 126 | 6.1 | 7.0 | 0.00 | 0.03 | 0.03 | 63 | 1015.0 |
| 20260508050258 | 53 | 103 | 0.0 | 7.0 | 0.00 | 0.03 | 0.03 | 62 | 1015.3 |
| 20260508045753 | 53 | 39 | 2.6 | 8.7 | 0.00 | 0.03 | 0.03 | 62 | 1015.3 |
| 20260508045251 | 53 | 135 | 4.3 | 8.7 | 0.00 | 0.03 | 0.03 | 61 | 1015.1 |
| 20260508044749 | 53 | 90 | 4.3 | 4.3 | 0.00 | 0.03 | 0.03 | 61 | 1015.7 |
| 20260508044245 | 53 | 28 | 4.3 | 8.7 | 0.00 | 0.03 | 0.03 | 61 | 1016.0 |
| 20260508043741 | 53 | 23 | 4.3 | 8.7 | 0.00 | 0.03 | 0.03 | 61 | 1016.0 |
| 20260508043239 | 54 | 23 | 0.9 | 10.4 | 0.00 | 0.03 | 0.03 | 61 | 1015.5 |
| 20260508042735 | 53 | 30 | 5.2 | 7.0 | 0.00 | 0.03 | 0.03 | 61 | 1015.3 |
| 20260508042233 | 54 | 19 | 0.0 | 2.6 | 0.00 | 0.03 | 0.03 | 59 | 1014.9 |
| 20260508041729 | 54 | 90 | 2.6 | 6.1 | 0.00 | 0.03 | 0.03 | 58 | 1014.5 |
| 20260508041226 | 54 | 122 | 4.3 | 8.7 | 0.00 | 0.03 | 0.03 | 57 | 1014.8 |
| 20260508040722 | 55 | 106 | 1.7 | 9.6 | 0.00 | 0.03 | 0.03 | 57 | 1014.5 |
| 20260508040220 | 55 | 33 | 4.3 | 8.7 | 0.00 | 0.03 | 0.03 | 56 | 1014.8 |
| 20260508035717 | 55 | 60 | 2.6 | 8.7 | 0.00 | 0.03 | 0.03 | 55 | 1014.9 |
| 20260508035215 | 55 | 28 | 6.1 | 10.4 | 0.00 | 0.03 | 0.03 | 54 | 1014.9 |
| 20260508034711 | 56 | 61 | 8.7 | 10.4 | 0.00 | 0.03 | 0.03 | 54 | 1014.8 |
| 20260508034209 | 56 | 48 | 6.1 | 15.6 | 0.00 | 0.03 | 0.03 | 51 | 1015.0 |
| 20260508033705 | 58 | 20 | 2.6 | 7.0 | 0.00 | 0.03 | 0.03 | 44 | 1014.8 |
| 20260508033204 | 59 | 48 | 1.7 | 1.7 | 0.00 | 0.03 | 0.03 | 42 | 1014.5 |
| 20260508032700 | 59 | 66 | 0.0 | 1.7 | 0.00 | 0.03 | 0.03 | 41 | 1014.7 |
| 20260508032157 | 59 | 82 | 0.9 | 2.6 | 0.00 | 0.03 | 0.03 | 39 | 1014.5 |
| 20260508031654 | 60 | 135 | 2.6 | 2.6 | 0.00 | 0.03 | 0.03 | 38 | 1014.7 |
| 20260508031150 | 60 | 114 | 0.0 | 1.7 | 0.00 | 0.03 | 0.03 | 38 | 1014.7 |
| 20260508030647 | 60 | 135 | 0.0 | 2.6 | 0.00 | 0.03 | 0.03 | 38 | 1014.5 |
| 20260508030145 | 60 | 103 | 1.7 | 2.6 | 0.00 | 0.03 | 0.03 | 38 | 1014.2 |
| 20260508025641 | 59 | 107 | 1.7 | 1.7 | 0.00 | 0.03 | 0.03 | 40 | 1014.4 |
| 20260508025138 | 60 | 156 | 1.7 | 1.7 | 0.00 | 0.03 | 0.03 | 39 | 1014.2 |
| 20260508024634 | 60 | 124 | 1.7 | 2.6 | 0.00 | 0.03 | 0.03 | 39 | 1014.3 |
| 20260508024132 | 60 | 114 | 0.0 | 1.7 | 0.00 | 0.03 | 0.03 | 38 | 1014.3 |
| 20260508023627 | 60 | 175 | 1.7 | 2.6 | 0.00 | 0.03 | 0.03 | 37 | 1014.2 |
| 20260508023125 | 60 | 90 | 0.0 | 1.7 | 0.00 | 0.03 | 0.03 | 37 | 1014.1 |
| 20260508022621 | 60 | 67 | 2.6 | 6.1 | 0.00 | 0.03 | 0.03 | 37 | 1014.0 |
| 20260508022118 | 60 | 18 | 0.0 | 8.7 | 0.00 | 0.03 | 0.03 | 39 | 1014.1 |
| 20260508021614 | 61 | 230 | 2.6 | 6.1 | 0.00 | 0.03 | 0.03 | 35 | 1014.2 |
| 20260508021110 | 61 | 48 | 1.7 | 4.3 | 0.00 | 0.03 | 0.03 | 37 | 1014.3 |
| 20260508020608 | 61 | 30 | 3.5 | 3.5 | 0.00 | 0.03 | 0.03 | 37 | 1014.5 |
| 20260508020105 | 62 | 342 | 4.3 | 9.6 | 0.00 | 0.03 | 0.03 | 38 | 1014.3 |
| 20260508015603 | 62 | 298 | 3.5 | 8.7 | 0.00 | 0.03 | 0.03 | 37 | 1014.2 |
| 20260508015059 | 62 | 44 | 6.1 | 9.6 | 0.00 | 0.03 | 0.03 | 37 | 1014.0 |
| 20260508014555 | 62 | 2 | 3.5 | 8.7 | 0.00 | 0.03 | 0.03 | 36 | 1013.6 |
| 20260508014052 | 62 | 31 | 6.1 | 13.0 | 0.00 | 0.03 | 0.03 | 36 | 1013.4 |
| 20260508013548 | 63 | 15 | 4.3 | 17.4 | 0.00 | 0.03 | 0.03 | 34 | 1013.1 |
| 20260508013045 | 64 | 26 | 1.7 | 3.5 | 0.00 | 0.03 | 0.03 | 31 | 1013.0 |
| 20260508012542 | 64 | 45 | 3.5 | 3.5 | 0.00 | 0.03 | 0.03 | 29 | 1012.8 |
| 20260508012040 | 64 | 11 | 1.7 | 2.6 | 0.00 | 0.03 | 0.03 | 27 | 1012.5 |
| 20260508011538 | 64 | 19 | 1.7 | 1.7 | 0.00 | 0.03 | 0.03 | 27 | 1012.8 |
| 20260508011035 | 65 | 9 | 1.7 | 2.6 | 0.00 | 0.03 | 0.03 | 27 | 1012.5 |
| 20260508010532 | 65 | 0 | 0.0 | 2.6 | 0.00 | 0.03 | 0.03 | 28 | 1012.8 |
| 20260508010029 | 65 | 20 | 0.0 | 2.6 | 0.00 | 0.03 | 0.03 | 28 | 1012.7 |
| 20260508005526 | 65 | 8 | 0.0 | 4.3 | 0.00 | 0.03 | 0.03 | 27 | 1012.3 |
| 20260508005022 | 65 | 350 | 2.6 | 4.3 | 0.00 | 0.03 | 0.03 | 27 | 1012.7 |
| 20260508004518 | 65 | 12 | 1.7 | 3.5 | 0.00 | 0.03 | 0.03 | 27 | 1012.7 |
| 20260508004015 | 66 | 337 | 1.7 | 3.5 | 0.00 | 0.03 | 0.03 | 26 | 1012.4 |
| 20260508003512 | 66 | 275 | 1.7 | 3.5 | 0.00 | 0.03 | 0.03 | 26 | 1012.5 |
| 20260508003009 | 66 | 17 | 3.5 | 6.1 | 0.00 | 0.03 | 0.03 | 26 | 1012.7 |
| 20260508002505 | 66 | 358 | 3.5 | 6.1 | 0.00 | 0.03 | 0.03 | 26 | 1012.5 |
| 20260508002003 | 66 | 9 | 1.7 | 4.3 | 0.00 | 0.03 | 0.03 | 27 | 1012.5 |
| 20260508001458 | 66 | 320 | 0.0 | 1.7 | 0.00 | 0.03 | 0.03 | 26 | 1012.4 |
| 20260508000955 | 67 | 270 | 3.5 | 7.8 | 0.00 | 0.03 | 0.03 | 24 | 1012.5 |
| 20260508000450 | 68 | 356 | 1.7 | 6.1 | 0.00 | 0.03 | 0.03 | 23 | 1012.3 |
| 20260507235948 | 69 | 279 | 3.5 | 7.8 | 0.00 | 0.03 | 0.03 | 22 | 1012.5 |
| 20260507235444 | 68 | 266 | 4.3 | 7.0 | 0.00 | 0.03 | 0.03 | 24 | 1012.7 |
| 20260507234942 | 68 | 286 | 2.6 | 5.2 | 0.00 | 0.03 | 0.03 | 23 | 1012.5 |
| 20260507234439 | 67 | 272 | 7.0 | 10.4 | 0.00 | 0.03 | 0.03 | 24 | 1012.5 |
| 20260507233935 | 68 | 235 | 1.7 | 7.0 | 0.00 | 0.03 | 0.03 | 24 | 1012.4 |
| 20260507233432 | 68 | 238 | 7.0 | 10.4 | 0.00 | 0.03 | 0.03 | 23 | 1012.7 |
| 20260507232931 | 67 | 280 | 7.0 | 13.0 | 0.00 | 0.03 | 0.03 | 24 | 1012.5 |
| 20260507232426 | 68 | 246 | 3.5 | 13.0 | 0.00 | 0.03 | 0.03 | 24 | 1012.5 |
| 20260507231924 | 69 | 270 | 2.6 | 7.0 | 0.00 | 0.03 | 0.03 | 24 | 1012.4 |
| 20260507231420 | 69 | 257 | 6.1 | 8.7 | 0.00 | 0.03 | 0.03 | 24 | 1012.5 |
| 20260507230917 | 69 | 244 | 4.3 | 14.8 | 0.00 | 0.03 | 0.03 | 23 | 1012.8 |
| 20260507230415 | 70 | 270 | 7.0 | 13.9 | 0.00 | 0.03 | 0.03 | 23 | 1012.7 |
| 20260507225914 | 70 | 295 | 5.2 | 11.3 | 0.00 | 0.03 | 0.03 | 23 | 1012.8 |
| 20260507225411 | 70 | 298 | 6.1 | 10.4 | 0.00 | 0.03 | 0.03 | 22 | 1012.4 |
| 20260507224907 | 70 | 310 | 3.5 | 12.2 | 0.00 | 0.03 | 0.03 | 23 | 1012.8 |
| 20260507224403 | 69 | 335 | 2.6 | 19.1 | 0.00 | 0.03 | 0.03 | 23 | 1012.7 |
| 20260507223900 | 69 | 270 | 0.9 | 10.4 | 0.00 | 0.03 | 0.03 | 24 | 1012.7 |
| 20260507223350 | 69 | 339 | 2.6 | 12.2 | 0.00 | 0.03 | 0.03 | 25 | 1012.7 |
| 20260507222847 | 69 | 302 | 2.6 | 10.4 | 0.00 | 0.03 | 0.03 | 23 | 1012.8 |
| 20260507222343 | 68 | 294 | 2.6 | 8.7 | 0.00 | 0.03 | 0.03 | 25 | 1013.0 |
| 20260507221841 | 67 | 317 | 3.5 | 6.1 | 0.00 | 0.03 | 0.03 | 25 | 1012.8 |
| 20260507221337 | 65 | 259 | 6.1 | 8.7 | 0.00 | 0.03 | 0.03 | 25 | 1013.1 |
| 20260507220833 | 66 | 1 | 4.3 | 9.6 | 0.00 | 0.03 | 0.03 | 25 | 1013.0 |
| 20260507220332 | 66 | 278 | 6.1 | 7.8 | 0.00 | 0.03 | 0.03 | 24 | 1013.1 |
| 20260507215828 | 66 | 261 | 9.6 | 13.9 | 0.00 | 0.03 | 0.03 | 25 | 1013.3 |
| 20260507215325 | 66 | 229 | 4.3 | 11.3 | 0.00 | 0.03 | 0.03 | 25 | 1013.3 |
| 20260507214822 | 66 | 328 | 2.6 | 7.8 | 0.00 | 0.03 | 0.03 | 26 | 1013.4 |
| 20260507214319 | 67 | 305 | 6.1 | 12.2 | 0.00 | 0.03 | 0.03 | 24 | 1013.5 |
| 20260507213814 | 66 | 239 | 9.6 | 12.2 | 0.00 | 0.03 | 0.03 | 25 | 1013.7 |
| 20260507213311 | 67 | 276 | 6.1 | 10.4 | 0.00 | 0.03 | 0.03 | 25 | 1013.6 |
| 20260507212808 | 66 | 276 | 7.8 | 13.0 | 0.00 | 0.03 | 0.03 | 26 | 1013.6 |
| 20260507212307 | 66 | 259 | 6.1 | 16.5 | 0.00 | 0.03 | 0.03 | 25 | 1013.7 |
| 20260507211801 | 66 | 285 | 7.8 | 17.4 | 0.00 | 0.03 | 0.03 | 25 | 1014.0 |
| 20260507211257 | 67 | 270 | 9.6 | 20.9 | 0.00 | 0.03 | 0.03 | 25 | 1013.8 |
| 20260507210754 | 67 | 315 | 1.7 | 20.0 | 0.00 | 0.03 | 0.03 | 26 | 1014.0 |
| 20260507210251 | 69 | 324 | 5.2 | 10.4 | 0.00 | 0.03 | 0.03 | 24 | 1014.1 |
| 20260507205747 | 69 | 297 | 9.6 | 15.6 | 0.00 | 0.03 | 0.03 | 24 | 1014.0 |
| 20260507205244 | 68 | 244 | 4.3 | 17.4 | 0.00 | 0.03 | 0.03 | 23 | 1014.2 |
| 20260507204741 | 68 | 328 | 2.6 | 15.6 | 0.00 | 0.03 | 0.03 | 25 | 1014.3 |
| 20260507204239 | 69 | 261 | 12.2 | 16.5 | 0.00 | 0.03 | 0.03 | 24 | 1014.1 |
| 20260507203736 | 68 | 341 | 7.8 | 23.5 | 0.00 | 0.03 | 0.03 | 24 | 1014.2 |
| 20260507203233 | 68 | 296 | 10.4 | 20.0 | 0.00 | 0.03 | 0.03 | 24 | 1014.2 |
| 20260507202730 | 68 | 275 | 3.5 | 15.6 | 0.00 | 0.03 | 0.03 | 26 | 1014.4 |
| 20260507202226 | 68 | 3 | 7.0 | 13.0 | 0.00 | 0.03 | 0.03 | 25 | 1014.4 |
| 20260507201721 | 67 | 294 | 10.4 | 18.2 | 0.00 | 0.03 | 0.03 | 26 | 1014.5 |
| 20260507201218 | 67 | 267 | 9.6 | 14.8 | 0.00 | 0.03 | 0.03 | 26 | 1014.7 |
| 20260507200714 | 67 | 328 | 7.0 | 15.6 | 0.00 | 0.03 | 0.03 | 26 | 1014.7 |
| 20260507200210 | 68 | 318 | 2.6 | 15.6 | 0.00 | 0.03 | 0.03 | 27 | 1014.8 |
| 20260507195707 | 67 | 351 | 3.5 | 20.0 | 0.00 | 0.03 | 0.03 | 25 | 1014.7 |
| 20260507195204 | 67 | 324 | 9.6 | 20.0 | 0.00 | 0.03 | 0.03 | 26 | 1015.0 |
| 20260507194701 | 67 | 243 | 1.7 | 15.6 | 0.00 | 0.03 | 0.03 | 28 | 1015.0 |
| 20260507194156 | 67 | 339 | 10.4 | 23.5 | 0.00 | 0.03 | 0.03 | 26 | 1015.0 |
| 20260507193654 | 68 | 351 | 7.0 | 19.1 | 0.00 | 0.03 | 0.03 | 25 | 1014.9 |
| 20260507193151 | 66 | 255 | 7.8 | 25.2 | 0.00 | 0.03 | 0.03 | 28 | 1014.9 |
| 20260507192646 | 65 | 242 | 7.8 | 21.7 | 0.00 | 0.03 | 0.03 | 28 | 1015.0 |
| 20260507192144 | 65 | 265 | 12.2 | 21.7 | 0.00 | 0.03 | 0.03 | 28 | 1015.4 |
| 20260507191639 | 67 | 291 | 7.0 | 16.5 | 0.00 | 0.03 | 0.03 | 26 | 1015.5 |
| 20260507191136 | 67 | 231 | 8.7 | 13.0 | 0.00 | 0.03 | 0.03 | 27 | 1015.4 |
| 20260507190633 | 66 | 349 | 4.3 | 13.0 | 0.00 | 0.03 | 0.03 | 28 | 1015.4 |
| 20260507190132 | 66 | 335 | 4.3 | 13.0 | 0.00 | 0.03 | 0.03 | 29 | 1015.3 |
| 20260507185630 | 65 | 0 | 2.6 | 8.7 | 0.00 | 0.03 | 0.03 | 30 | 1015.6 |
| 20260507185126 | 65 | 270 | 7.8 | 7.8 | 0.00 | 0.03 | 0.03 | 30 | 1015.5 |
| 20260507184624 | 64 | 3 | 1.7 | 16.5 | 0.00 | 0.03 | 0.03 | 32 | 1015.7 |
| 20260507184122 | 64 | 281 | 3.5 | 13.0 | 0.00 | 0.03 | 0.03 | 30 | 1015.6 |
| 20260507183618 | 64 | 250 | 7.0 | 11.3 | 0.00 | 0.03 | 0.03 | 30 | 1015.6 |
| 20260507183115 | 64 | 238 | 5.2 | 11.3 | 0.00 | 0.03 | 0.03 | 30 | 1015.7 |
| 20260507182611 | 64 | 270 | 2.6 | 7.0 | 0.00 | 0.03 | 0.03 | 31 | 1015.7 |
| 20260507182107 | 64 | 339 | 5.2 | 8.7 | 0.00 | 0.03 | 0.03 | 31 | 1015.8 |
| 20260507181605 | 64 | 228 | 6.1 | 11.3 | 0.00 | 0.03 | 0.03 | 29 | 1015.8 |
| 20260507181101 | 64 | 300 | 8.7 | 13.0 | 0.00 | 0.03 | 0.03 | 30 | 1015.6 |
| 20260507180558 | 64 | 226 | 6.1 | 9.6 | 0.00 | 0.03 | 0.03 | 31 | 1015.6 |
| 20260507180054 | 63 | 272 | 5.2 | 7.0 | 0.00 | 0.03 | 0.03 | 32 | 1015.7 |
| 20260507175550 | 63 | 202 | 10.4 | 10.4 | 0.00 | 0.03 | 0.03 | 33 | 1015.8 |
| 20260507175048 | 63 | 209 | 7.8 | 11.3 | 0.00 | 0.03 | 0.03 | 32 | 1016.0 |
| 20260507174545 | 63 | 229 | 7.8 | 7.8 | 0.00 | 0.03 | 0.03 | 31 | 1016.0 |
| 20260507174043 | 62 | 220 | 4.3 | 11.3 | 0.00 | 0.03 | 0.03 | 32 | 1016.1 |
| 20260507173539 | 63 | 223 | 5.2 | 9.6 | 0.00 | 0.03 | 0.03 | 31 | 1016.0 |
| 20260507173037 | 63 | 241 | 1.7 | 7.8 | 0.00 | 0.03 | 0.03 | 32 | 1016.0 |
| 20260507172532 | 63 | 180 | 3.5 | 7.8 | 0.00 | 0.03 | 0.03 | 32 | 1016.0 |
| 20260507172029 | 63 | 223 | 7.8 | 13.0 | 0.00 | 0.03 | 0.03 | 32 | 1015.8 |
| 20260507171525 | 62 | 254 | 5.2 | 5.2 | 0.00 | 0.03 | 0.03 | 34 | 1016.0 |
| 20260507171023 | 62 | 157 | 2.6 | 5.2 | 0.00 | 0.03 | 0.03 | 34 | 1016.0 |
| 20260507170519 | 61 | 232 | 0.0 | 8.7 | 0.00 | 0.03 | 0.03 | 35 | 1016.1 |
| 20260507170016 | 61 | 230 | 3.5 | 7.8 | 0.00 | 0.03 | 0.03 | 35 | 1016.3 |
| 20260507165512 | 60 | 231 | 8.7 | 12.2 | 0.00 | 0.03 | 0.03 | 36 | 1016.3 |
| 20260507165009 | 61 | 229 | 2.6 | 7.8 | 0.00 | 0.03 | 0.03 | 36 | 1016.1 |
| 20260507164505 | 60 | 220 | 4.3 | 11.3 | 0.00 | 0.03 | 0.03 | 37 | 1016.4 |
| 20260507164002 | 61 | 230 | 7.0 | 9.6 | 0.00 | 0.03 | 0.03 | 35 | 1016.3 |
| 20260507163459 | 61 | 199 | 6.1 | 9.6 | 0.00 | 0.03 | 0.03 | 36 | 1016.1 |
| 20260507162956 | 60 | 225 | 3.5 | 10.4 | 0.00 | 0.03 | 0.03 | 37 | 1016.4 |
| 20260507162451 | 61 | 166 | 5.2 | 7.0 | 0.00 | 0.03 | 0.03 | 35 | 1016.4 |
| 20260507161948 | 60 | 199 | 2.6 | 7.8 | 0.00 | 0.03 | 0.03 | 36 | 1016.4 |
| 20260507161444 | 60 | 222 | 7.8 | 8.7 | 0.00 | 0.03 | 0.03 | 36 | 1016.7 |
| 20260507160942 | 58 | 231 | 3.5 | 7.8 | 0.00 | 0.03 | 0.03 | 38 | 1016.8 |
| 20260507160437 | 59 | 223 | 7.0 | 10.4 | 0.00 | 0.03 | 0.03 | 36 | 1016.7 |
| 20260507155933 | 58 | 235 | 6.1 | 7.0 | 0.00 | 0.03 | 0.03 | 36 | 1016.7 |
| 20260507155430 | 58 | 195 | 4.3 | 7.8 | 0.02 | 0.03 | 0.03 | 37 | 1016.8 |
| 20260507154927 | 58 | 183 | 6.1 | 6.1 | 0.00 | 0.03 | 0.03 | 38 | 1017.0 |
| 20260507154423 | 57 | 174 | 7.8 | 7.8 | 0.00 | 0.03 | 0.03 | 38 | 1016.8 |
| 20260507153921 | 56 | 180 | 7.0 | 8.7 | 0.02 | 0.03 | 0.03 | 38 | 1017.0 |
| 20260507153417 | 56 | 213 | 5.2 | 9.6 | 0.02 | 0.03 | 0.03 | 38 | 1016.7 |
| 20260507152914 | 56 | 192 | 2.6 | 6.1 | 0.00 | 0.02 | 0.02 | 39 | 1016.7 |
| 20260507152410 | 56 | 158 | 4.3 | 5.2 | 0.00 | 0.02 | 0.02 | 39 | 1016.7 |
| 20260507151906 | 55 | 229 | 2.6 | 7.0 | 0.02 | 0.02 | 0.02 | 40 | 1017.1 |
| 20260507151403 | 55 | 153 | 3.5 | 7.0 | 0.02 | 0.02 | 0.02 | 39 | 1016.8 |
| 20260507150900 | 54 | 160 | 2.6 | 7.8 | 0.00 | 0.02 | 0.02 | 38 | 1016.8 |
| 20260507150356 | 54 | 190 | 4.3 | 6.1 | 0.00 | 0.02 | 0.02 | 40 | 1016.9 |
| 20260507145852 | 53 | 163 | 6.1 | 6.1 | 0.02 | 0.02 | 0.02 | 40 | 1016.8 |
| 20260507145349 | 53 | 221 | 1.7 | 7.8 | 0.02 | 0.02 | 0.02 | 40 | 1017.0 |
| 20260507144846 | 52 | 168 | 3.5 | 7.8 | 0.00 | 0.02 | 0.02 | 41 | 1017.1 |
| 20260507144343 | 52 | 194 | 3.5 | 7.0 | 0.02 | 0.02 | 0.02 | 40 | 1017.0 |
| 20260507143840 | 52 | 180 | 2.6 | 7.8 | 0.02 | 0.02 | 0.02 | 40 | 1017.0 |
| 20260507143337 | 51 | 204 | 4.3 | 7.8 | 0.00 | 0.01 | 0.01 | 41 | 1016.8 |
| 20260507142833 | 50 | 220 | 2.6 | 6.1 | 0.02 | 0.01 | 0.01 | 43 | 1017.0 |
| 20260507142329 | 50 | 229 | 4.3 | 6.1 | 0.02 | 0.01 | 0.01 | 43 | 1017.0 |
| 20260507141826 | 50 | 147 | 6.1 | 10.4 | 0.00 | 0.01 | 0.01 | 43 | 1016.7 |
| 20260507141323 | 49 | 201 | 2.6 | 7.0 | 0.00 | 0.01 | 0.01 | 43 | 1016.7 |
| 20260507140819 | 49 | 200 | 2.6 | 7.8 | 0.02 | 0.01 | 0.01 | 44 | 1016.8 |
| 20260507140316 | 48 | 179 | 3.5 | 9.6 | 0.02 | 0.01 | 0.01 | 44 | 1016.7 |
| 20260507135814 | 48 | 202 | 4.3 | 7.8 | 0.00 | 0.00 | 0.00 | 45 | 1017.0 |
| 20260507135311 | 48 | 167 | 3.5 | 8.7 | 0.00 | 0.00 | 0.00 | 45 | 1016.9 |
| 20260507134808 | 47 | 214 | 5.2 | 12.2 | 0.02 | 0.00 | 0.00 | 46 | 1016.8 |
| 20260507134304 | 47 | 253 | 3.5 | 6.1 | 0.02 | 0.00 | 0.00 | 46 | 1016.8 |
| 20260507133800 | 46 | 243 | 2.6 | 7.8 | 0.00 | 0.00 | 0.00 | 46 | 1016.9 |
| 20260507133256 | 46 | 213 | 2.6 | 5.2 | 0.00 | 0.00 | 0.00 | 47 | 1016.8 |
| 20260507132754 | 46 | 178 | 2.6 | 7.0 | 0.00 | 0.00 | 0.00 | 47 | 1016.7 |
| 20260507132251 | 45 | 184 | 5.2 | 7.0 | 0.00 | 0.00 | 0.00 | 47 | 1016.7 |
| 20260507131748 | 45 | 181 | 3.5 | 7.0 | 0.00 | 0.00 | 0.00 | 47 | 1016.8 |
| 20260507131244 | 45 | 176 | 3.5 | 8.7 | 0.00 | 0.00 | 0.00 | 48 | 1016.7 |